Location: Unspecified
(0.0000°N, 0.0000°E)
Time: 00:24:15
(UTC+00:00)

CZ-3B DEB - Pass Details

Date: 22 December 2025
Orbit: 439 x 40833 km, 23.6° (Epoch: 17 December)

Event Time Altitude Azimuth Distance (km) Brightness Sun altitude
Rises 16:37:18 0° 293° (WNW) 10,041 ? 18.6°
Reaches altitude 10° 16:42:38 10° 297° (WNW) 10,576 ? 17.4°
Maximum altitude 18:54:00 56° 316° (NW) 30,813 ? -12.6°
Drops below altitude 10° 04:05:13 10° 164° (SSE) 3,052 ? -25.9°
Sets 04:07:45 0° 140° (SE) 3,282 ? -25.4°
